Regional Weather Roundup
Issued by NWS

Home | Current Version | Previous Version | Text Only | Print | Product List | Glossary On
Versions: 1 2 3 4 5 6 7 8 9 10 11 12 13 14 15 16 17 18 19 20 21 22 23 24 25 26 27 28 29 30 31 32 33 34 35 36 37 38 39 40 41 42 43 44 45 46 47 48 49 50
000
ASUS43 KBIS 240710
RWRND

NORTH DAKOTA REGIONAL WEATHER ROUNDUP
NATIONAL WEATHER SERVICE BISMARCK ND
200 AM CDT THU AUG 24 2017

NOTE: "FAIR" INDICATES FEW OR NO CLOUDS BELOW 12,000 FEET WITH NO
SIGNIFICANT WEATHER AND/OR OBSTRUCTIONS TO VISIBILITY.


NDZ001>003-009>011-017-240800-
NORTHWEST NORTH DAKOTA

CITY           SKY/WX    TMP DP  RH WIND       PRES   REMARKS
WILLISTON      CLEAR     63  53  70 NE8       29.97R
MINOT          CLEAR     57  51  80 E9        30.01S
MINOT AFB      CLEAR     54  50  86 E10       30.01R
$$

NDZ018>021-031>035-040>046-240800-
SOUTHWEST NORTH DAKOTA

CITY           SKY/WX    TMP DP  RH WIND       PRES   REMARKS
BISMARCK       CLEAR     60  57  89 E9        29.97S
DICKINSON      CLEAR     61  57  87 S9        29.95S
GARRISON         N/A     57  55  93 E12       29.97R
HETTINGER ARPT CLEAR     63  56  78 SE6       29.99S
$$

NDZ004>008-012>016-024-026-027-054-240800-
NORTHEAST NORTH DAKOTA

CITY           SKY/WX    TMP DP  RH WIND       PRES   REMARKS
GRAND FORKS    MOCLDY    55  54  96 NE6       30.09S
GRND FRKS AFB  PTCLDY    52  52  99 NE3       30.10R
DEVILS LAKE    PTCLDY    54  52  93 E10       30.08R
$$

NDZ022-023-025-028>030-036>039-047>053-240800-
SOUTHEAST NORTH DAKOTA

CITY           SKY/WX    TMP DP  RH WIND       PRES   REMARKS
FARGO          CLOUDY    58  56  93 E6        30.06R
JAMESTOWN      CLEAR     56  52  86 E12       30.02S
$$




USA.gov is the U.S. government's official web portal to all federal, state and local government web resources and services.